Regional Weather Roundup
Issued by NWS Sioux Falls, SD

Home | Current Version | Previous Version | Graphics & Text | Print | Product List | Glossary Off
Versions: 1 2 3 4 5 6 7 8 9 10 11 12 13 14 15 16 17 18 19 20 21 22 23 24 25 26 27 28 29 30 31 32 33 34 35 36 37 38 39 40 41 42 43 44 45 46 47 48 49 50

000
ASUS43 KFSD 222102
RWRFSD

WEATHER ROUNDUP FOR SE SOUTH DAKOTA/SW MINNESOTA/NW IOWA
NATIONAL WEATHER SERVICE SIOUX FALLS SD
300 PM CST WED FEB 22 2017

NOTE: "FAIR" INDICATES FEW OR NO CLOUDS BELOW 12,000 FEET WITH NO
SIGNIFICANT WEATHER AND OR OBSTRUCTIONS TO VISIBILITY.


SDZ038>040-050-052>070-222200-
SOUTHEAST SOUTH DAKOTA

CITY           SKY/WX    TMP DP  RH WIND       PRES   REMARKS
BROOKINGS      SUNNY     53  42  66 NW16      29.63R
CHAMBERLAIN    MOSUNNY   57  41  54 N16G23    29.73R
HURON          SUNNY     53  40  61 N20G25    29.70R
MADISON        FAIR      50  48  93 NW18      29.66R
MITCHELL       MOSUNNY   58  40  51 NW26      29.69R
SIOUX FALLS    PTSUNNY   58  43  57 W20G30    29.64R
WINNER         MOCLDY    61  29  29 NW24G33   29.72F
YANKTON        SUNNY    N/A N/A N/A NW25G33   29.65R
$$

MNZ071-072-080-081-089-090-097-098-222200-
SOUTHWEST MINNESOTA

CITY           SKY/WX    TMP DP  RH WIND       PRES   REMARKS
FAIRMONT       SUNNY     63  45  51 W10       29.57S
JACKSON        SUNNY     61  43  51 W17G23    29.59R
LUVERNE        SUNNY     59  37  44 W22G28    29.63R
MARSHALL       SUNNY     49  42  77 NW22G29   29.61R
MONTEVIDEO     CLOUDY    46  41  81 N18G24    29.64R
PIPESTONE      SUNNY     55  39  54 NW20G26   29.62R
REDWOOD FALLS  MOSUNNY   54  44  69 NW15G23   29.58R
TRACY          MOSUNNY   56  49  80 NW18G25   29.60R
WINDOM         SUNNY     63  43  48 W18G24    29.57S
WORTHINGTON    SUNNY     61  42  49 W22       29.60S
$$

IAZ001>003-012>014-020>022-031-032-NEZ013-014-SDZ071-222200-
NORTHWEST IOWA

CITY           SKY/WX    TMP DP  RH WIND       PRES   REMARKS
CHEROKEE       SUNNY     64  41  42 W18G24    29.63R
DENISON        SUNNY     68  41  37 NW17      29.61R
ESTHERVILLE    SUNNY     62  48  60 NW9       29.57F
LE MARS        SUNNY     64  37  36 W17G24    29.64S
ORANGE CITY    SUNNY     63  43  48 W20G25    29.63R
SHELDON        SUNNY     61  46  59 W20G25    29.60S
SIOUX CITY     SUNNY     69  37  30 NW23G30   29.64R
SPENCER        SUNNY     65  45  48 W21       29.61R
STORM LAKE     SUNNY     64  43  45 NW21      29.62R
$$

ABBREVIATIONS USED IN REMARKS
   TC - TEMPERATURE IN CELSIUS
  WCI - WIND CHILL INDEX
   HX - HEAT INDEX
  VSB - VISIBILITY




USA.gov is the U.S. government's official web portal to all federal, state and local government web resources and services.